[[{"header":{"parameterUnit":"m.s-1","parameterCategory":2,"la1":30.2992,"la2":30.254,"lo1":-89.0895,"lo2":-89.0443,"dy":0.0025,"dx":0.0025,"nx":19,"ny":19,"refTime":"2026-03-21T03:00:00:Z","depth":"0","parameterNumber":2,"parameterNumberName":"U-component_of_CURRENTS"},"data":[0,0,0,-0.1966,-0.1965,-0.192,-0.1919,-0.18,-0.1799,0,0,0,0,0,0,0,0,0,0,0,-0.1969,-0.1969,-0.1966,-0.1965,-0.192,-0.1919,-0.1801,-0.1799,0,0,0,0,0,0,0,0,0,0,0,-0.197,-0.1969,-0.1969,-0.1965,-0.192,-0.1919,-0.1801,-0.1847,0,0,0,0,0,0,0,0,0,0,-0.1897,-0.191,-0.1969,-0.1969,-0.1965,-0.192,-0.1919,-0.1849,-0.1844,-0.1808,0,-0.1802,0,-0.1807,-0.1791,-0.1791,0,0,0,-0.1951,-0.1915,-0.1911,-0.1969,-0.1965,-0.192,-0.1936,-0.1847,-0.184,-0.18,-0.18,-0.1796,-0.1805,-0.179,-0.179,-0.1633,-0.1632,0,0,-0.1954,-0.195,-0.1916,-0.1907,-0.1952,-0.1938,-0.1935,-0.1843,-0.183,-0.18,-0.1794,-0.1803,-0.179,-0.1789,-0.1634,-0.1633,0,0,0,-0.197,-0.1952,-0.1951,-0.1911,-0.1913,-0.1937,-0.1934,-0.1834,-0.1836,-0.1793,-0.1802,-0.1789,-0.1787,-0.1635,-0.1633,-0.1639,0,0,0,-0.1971,-0.1963,-0.1952,-0.1948,-0.1916,-0.1881,-0.1926,-0.1842,-0.1832,-0.1802,-0.1789,-0.1786,-0.1636,-0.1634,-0.1641,-0.1653,0,0,0,-0.1972,-0.1963,-0.196,-0.1948,-0.1938,-0.1883,-0.1879,-0.184,-0.1838,-0.1791,-0.1786,-0.1636,-0.1634,-0.1643,-0.1655,-0.1549,0,0,0,-0.1967,-0.1955,-0.1959,-0.1947,-0.1938,-0.1903,-0.188,-0.1846,-0.1809,-0.1788,-0.1635,-0.1633,-0.1643,-0.1656,-0.1552,-0.1225,-0.1186,0,0,-0.1953,-0.1953,-0.1949,-0.1952,-0.1928,-0.1908,-0.1839,-0.1788,-0.176,-0.1661,-0.1658,-0.1641,-0.1655,-0.155,-0.1114,-0.1078,0,0,0,-0.1946,-0.1932,-0.1929,-0.1913,-0.1899,-0.1847,-0.1794,-0.1756,-0.1675,-0.1731,-0.1599,-0.1607,-0.1541,-0.1348,-0.1319,-0.114,-0.1625,-0.1625,-0.1625,-0.1893,-0.19,-0.1871,-0.1859,-0.1837,-0.1784,-0.1739,-0.1663,-0.1639,-0.1598,-0.1581,-0.1467,-0.1261,-0.1236,-0.1057,-0.154,-0.154,-0.154,-0.154,-0.1839,-0.1807,-0.1811,-0.1789,-0.1759,-0.1701,-0.1637,-0.1619,-0.1507,-0.1532,-0.1465,-0.1327,-0.1204,-0.1024,-0.154,-0.154,-0.154,-0.154,-0.154,-0.178,-0.1761,-0.1763,-0.1714,-0.1675,-0.1641,-0.1547,-0.1552,-0.1499,-0.1465,-0.1165,-0.1161,-0.1025,-0.1391,-0.1391,-0.1391,-0.139,-0.139,-0.139,-0.1707,-0.1706,-0.164,-0.1627,-0.1576,-0.1538,-0.149,-0.1412,-0.1223,-0.1127,-0.1122,-0.0918,-0.142,-0.1452,-0.1383,-0.1384,-0.1385,-0.1386,-0.1386,-0.1568,-0.1593,-0.1474,-0.1418,-0.1316,-0.1157,-0.1206,-0.0911,-0.0845,-0.0669,-0.0465,-0.0908,-0.0859,-0.0878,-0.0893,-0.0684,-0.0684,-0.0684,-0.0684,-0.1452,-0.1469,-0.1251,-0.1107,-0.099,-0.0936,-0.053,-0.0324,-0.01,0.007,-0.0084,-0.0035,-0.0071,0.0021,-0.0018,-0.0017,0.0409,0.041,0.0411,-0.1296,-0.1261,-0.1038,-0.093,-0.0787,-0.0613,-0.0155,0.025,0.0525,0.0456,0.0097,0.0051,0.0107,0.0035,0.0159,0.0091,0.0083,0,0]},{"header":{"parameterUnit":"m.s-1","parameterCategory":2,"la1":30.2992,"la2":30.254,"lo1":-89.0895,"lo2":-89.0443,"dy":0.0025,"dx":0.0025,"nx":19,"ny":19,"refTime":"2026-03-21T03:00:00:Z","depth":"0","parameterNumber":3,"parameterNumberName":"V-component_of_CURRENTS"},"data":[0,0,0,-0.0298,-0.0298,-0.0256,-0.0256,-0.0031,-0.0028,0,0,0,0,0,0,0,0,0,0,0,-0.0311,-0.0311,-0.0298,-0.0298,-0.0256,-0.0256,-0.0031,-0.0028,0,0,0,0,0,0,0,0,0,0,0,-0.0311,-0.0311,-0.0311,-0.0298,-0.0256,-0.0256,-0.0032,-0.0102,0,0,0,0,0,0,0,0,0,0,-0.0162,-0.0202,-0.0311,-0.0311,-0.0298,-0.0256,-0.0256,-0.0107,-0.0097,-0.0006,0,-0.0014,0,-0.0019,-0.0011,-0.001,0,0,0,-0.0281,-0.0211,-0.0204,-0.0311,-0.0298,-0.0256,-0.027,-0.0103,-0.0092,0.0008,-0.0011,-0.0004,-0.0015,-0.0009,-0.0008,0.0184,0.0184,0,0,-0.0283,-0.0288,-0.0213,-0.0198,-0.03,-0.0272,-0.0269,-0.0098,-0.0084,-0.001,0.0001,-0.0011,-0.0008,-0.0006,0.0184,0.0184,0,0,0,-0.0301,-0.029,-0.0291,-0.0206,-0.0214,-0.0271,-0.0268,-0.0092,-0.0095,0.0003,-0.0009,-0.0006,-0.0003,0.0183,0.0184,0.0069,0,0,0,-0.0302,-0.0302,-0.0292,-0.0292,-0.0219,-0.0176,-0.0266,-0.0107,-0.0089,-0.001,-0.0006,-0.0,0.0183,0.0184,0.0072,0.0059,0,0,0,-0.0311,-0.0302,-0.0304,-0.0293,-0.0284,-0.018,-0.0172,-0.0104,-0.0094,-0.001,0.0,0.0183,0.0183,0.0075,0.0063,0.0148,0,0,0,-0.0306,-0.0332,-0.0304,-0.0332,-0.0285,-0.0269,-0.0174,-0.0141,-0.0082,-0.0005,0.0183,0.0184,0.0075,0.0065,0.0148,0.0313,0.0324,0,0,-0.0343,-0.0336,-0.0356,-0.0332,-0.0353,-0.0273,-0.0241,-0.0127,-0.0035,0.0143,0.0146,0.0071,0.0063,0.0148,0.0333,0.0344,0,0,0,-0.0372,-0.0383,-0.0388,-0.0388,-0.0361,-0.0302,-0.0201,-0.0134,-0.0013,-0.0,0.0111,0.0112,0.0168,0.0269,0.0277,0.0453,0.0185,0.0185,0.0185,-0.0411,-0.0412,-0.0434,-0.042,-0.0393,-0.0303,-0.0244,-0.0114,-0.0037,-0.0004,0.0045,0.0072,0.0175,0.0184,0.036,0.0059,0.0058,0.0058,0.0058,-0.0469,-0.0473,-0.0455,-0.048,-0.0411,-0.0359,-0.0223,-0.0173,-0.0022,0.0001,0.0062,0.0176,0.0187,0.0372,0.0051,0.0052,0.0053,0.0054,0.0054,-0.0494,-0.0488,-0.051,-0.0508,-0.0465,-0.0386,-0.0278,-0.0203,-0.0085,-0.0054,0.0174,0.0179,0.0328,0.0006,0.0006,0.0006,0.0007,0.0007,0.0007,-0.0494,-0.0509,-0.0517,-0.0527,-0.0504,-0.0441,-0.03,-0.0188,0.0017,0.0119,0.0122,0.0383,0.006,0.0046,0.0011,0.001,0.001,0.001,0.0009,-0.0483,-0.0497,-0.0502,-0.0499,-0.0445,-0.0323,-0.025,0.0047,0.0173,0.0318,0.0571,0.0249,0.0336,0.0332,0.0329,0.037,0.037,0.037,0.037,-0.0456,-0.0472,-0.0434,-0.0399,-0.0338,-0.0243,0.0058,0.0297,0.0627,0.0819,0.0813,0.084,0.0817,0.0933,0.0915,0.0925,0.1116,0.1117,0.1118,-0.0416,-0.0416,-0.0357,-0.0337,-0.0268,-0.0096,0.0229,0.0567,0.1005,0.1159,0.1021,0.099,0.1031,0.0982,0.1161,0.1123,0.1138,0,0]}],[{"header":{"parameterUnit":"m.s-1","parameterCategory":2,"la1":30.2992,"la2":30.254,"lo1":-89.0895,"lo2":-89.0443,"dy":0.0025,"dx":0.0025,"nx":19,"ny":19,"refTime":"2026-03-21T03:00:00:Z","depth":"2","parameterNumber":2,"parameterNumberName":"U-component_of_CURRENTS"},"data":[0,0,0,-0.254,-0.2542,-0.2678,-0.2679,-0.275,-0.2751,0,0,0,0,0,0,0,0,0,0,0,-0.2469,-0.2469,-0.2539,-0.2543,-0.2678,-0.2679,-0.275,-0.2751,0,0,0,0,0,0,0,0,0,0,0,-0.2469,-0.2469,-0.247,-0.2543,-0.2678,-0.2679,-0.275,-0.2675,0,0,0,0,0,0,0,0,0,0,-0.2557,-0.2545,-0.2469,-0.247,-0.2544,-0.2678,-0.2679,-0.2673,-0.268,-0.2658,0,-0.266,0,-0.2711,-0.2752,-0.2753,0,0,0,-0.255,-0.2539,-0.2536,-0.247,-0.2545,-0.2677,-0.2619,-0.2677,-0.2685,-0.2666,-0.2661,-0.2666,-0.2712,-0.2753,-0.2753,-0.2789,-0.2789,0,0,-0.2542,-0.2536,-0.2531,-0.254,-0.2553,-0.2615,-0.2623,-0.2683,-0.2701,-0.2662,-0.2669,-0.2714,-0.2753,-0.2753,-0.2789,-0.2789,0,0,0,-0.2516,-0.2531,-0.253,-0.2536,-0.2571,-0.2618,-0.2628,-0.2699,-0.2686,-0.267,-0.2714,-0.2753,-0.2753,-0.2789,-0.2789,-0.282,0,0,0,-0.2512,-0.2515,-0.2526,-0.2531,-0.257,-0.2663,-0.2642,-0.2682,-0.2692,-0.2714,-0.2753,-0.2754,-0.2788,-0.2789,-0.2819,-0.2745,0,0,0,-0.2468,-0.2513,-0.251,-0.2529,-0.2583,-0.2663,-0.2658,-0.2686,-0.2718,-0.2753,-0.2754,-0.2788,-0.2789,-0.2818,-0.2746,-0.2594,0,0,0,-0.2482,-0.2502,-0.251,-0.2529,-0.2581,-0.2612,-0.2659,-0.2746,-0.2783,-0.2753,-0.2788,-0.2789,-0.2817,-0.2747,-0.2597,-0.24,-0.2371,0,0,-0.2514,-0.2506,-0.2506,-0.2517,-0.2543,-0.2595,-0.2647,-0.2747,-0.2774,-0.2762,-0.2764,-0.2819,-0.2746,-0.2595,-0.2428,-0.2396,0,0,0,-0.2519,-0.2515,-0.2516,-0.2538,-0.2556,-0.2617,-0.2708,-0.2729,-0.2808,-0.2796,-0.282,-0.2771,-0.2674,-0.2564,-0.254,-0.2791,-0.2791,-0.2791,-0.2791,-0.2606,-0.2572,-0.2567,-0.2544,-0.2572,-0.2658,-0.2686,-0.2735,-0.2781,-0.2837,-0.2802,-0.2705,-0.2596,-0.2573,-0.2853,-0.2853,-0.2853,-0.2853,-0.2853,-0.2583,-0.2546,-0.2554,-0.2542,-0.2597,-0.2657,-0.2702,-0.2767,-0.2704,-0.2802,-0.2709,-0.261,-0.2548,-0.2855,-0.2855,-0.2855,-0.2854,-0.2854,-0.2854,-0.2539,-0.2525,-0.2527,-0.2536,-0.2625,-0.2705,-0.2655,-0.2712,-0.2695,-0.2636,-0.242,-0.2418,-0.2626,-0.2582,-0.2581,-0.258,-0.258,-0.2579,-0.2578,-0.2502,-0.2495,-0.2496,-0.2534,-0.2597,-0.2642,-0.2639,-0.2546,-0.2399,-0.2349,-0.2348,-0.2609,-0.2618,-0.2606,-0.2564,-0.2567,-0.2568,-0.257,-0.2571,-0.2432,-0.2445,-0.2428,-0.2464,-0.2518,-0.2375,-0.2422,-0.214,-0.2039,-0.1889,-0.2152,-0.2167,-0.2088,-0.2107,-0.208,-0.1903,-0.1903,-0.1903,-0.1903,-0.2413,-0.2399,-0.2354,-0.2337,-0.2304,-0.2233,-0.1821,-0.1623,-0.1604,-0.1602,-0.1616,-0.1704,-0.1736,-0.1644,-0.1674,-0.1641,-0.1349,-0.1348,-0.1348,-0.2397,-0.238,-0.2298,-0.2226,-0.2187,-0.1947,-0.147,-0.1076,-0.1089,-0.1333,-0.1593,-0.1851,-0.2025,-0.2058,-0.1957,-0.1989,-0.1952,0,0]},{"header":{"parameterUnit":"m.s-1","parameterCategory":2,"la1":30.2992,"la2":30.254,"lo1":-89.0895,"lo2":-89.0443,"dy":0.0025,"dx":0.0025,"nx":19,"ny":19,"refTime":"2026-03-21T03:00:00:Z","depth":"2","parameterNumber":3,"parameterNumberName":"V-component_of_CURRENTS"},"data":[0,0,0,-0.054,-0.0538,-0.0392,-0.0391,-0.011,-0.0107,0,0,0,0,0,0,0,0,0,0,0,-0.0597,-0.0597,-0.054,-0.0538,-0.0392,-0.0391,-0.011,-0.0107,0,0,0,0,0,0,0,0,0,0,0,-0.0597,-0.0597,-0.0596,-0.0537,-0.0392,-0.0391,-0.0111,-0.0238,0,0,0,0,0,0,0,0,0,0,-0.0388,-0.0464,-0.0597,-0.0596,-0.0537,-0.0393,-0.0391,-0.0245,-0.023,-0.0157,0,-0.0159,0,-0.0132,-0.0089,-0.0088,0,0,0,-0.0511,-0.0477,-0.0441,-0.0596,-0.0536,-0.0393,-0.045,-0.0237,-0.022,-0.0137,-0.0155,-0.0144,-0.0127,-0.0087,-0.0085,0.0148,0.0149,0,0,-0.0519,-0.0554,-0.0454,-0.0432,-0.0526,-0.0455,-0.0446,-0.0227,-0.0217,-0.0154,-0.0138,-0.0123,-0.0085,-0.0083,0.0148,0.0148,0,0,0,-0.056,-0.056,-0.0531,-0.0443,-0.0428,-0.0451,-0.0441,-0.0226,-0.0219,-0.0135,-0.0119,-0.0083,-0.008,0.0147,0.0148,0.0139,0,0,0,-0.0563,-0.0586,-0.0536,-0.0552,-0.0434,-0.0338,-0.0445,-0.0235,-0.0209,-0.0121,-0.0083,-0.0077,0.0147,0.0148,0.0138,0.0145,0,0,0,-0.0599,-0.0588,-0.0583,-0.0555,-0.0504,-0.0342,-0.032,-0.0229,-0.02,-0.0087,-0.0077,0.0146,0.0147,0.0137,0.0144,0.0202,0,0,0,-0.0622,-0.0638,-0.0584,-0.0591,-0.0506,-0.0441,-0.0322,-0.021,-0.0118,-0.0082,0.0147,0.0148,0.0137,0.0143,0.02,0.0086,0.0085,0,0,-0.0659,-0.0643,-0.0648,-0.0597,-0.0567,-0.0457,-0.0393,-0.0197,-0.0073,0.0085,0.0091,0.0138,0.0144,0.0201,0.0153,0.0149,0,0,0,-0.0671,-0.0678,-0.066,-0.0627,-0.0557,-0.046,-0.0307,-0.0185,0.0039,-0.0019,0.0165,0.0169,0.0205,0.0134,0.0132,0.0153,0.0153,0.0153,0.0153,-0.0751,-0.0715,-0.0713,-0.0658,-0.0604,-0.0435,-0.0299,-0.0099,-0.0004,0.0126,0.018,0.0245,0.0167,0.0164,0.0197,0.0197,0.0197,0.0197,0.0197,-0.082,-0.0822,-0.0755,-0.0737,-0.062,-0.0535,-0.0247,-0.01,0.0168,0.0213,0.0249,0.015,0.0161,0.0197,0.0197,0.0197,0.0197,0.0197,0.0197,-0.0889,-0.088,-0.0857,-0.0807,-0.0678,-0.0511,-0.0317,-0.0058,0.018,0.0263,0.0222,0.022,0.0247,0.029,0.0291,0.0291,0.0291,0.0291,0.0292,-0.0961,-0.0938,-0.0921,-0.0845,-0.076,-0.0598,-0.0279,-0.0126,0.0097,0.0224,0.0223,0.0277,0.0274,0.0255,0.0296,0.0295,0.0295,0.0294,0.0294,-0.1031,-0.1019,-0.0997,-0.0939,-0.078,-0.0706,-0.0457,-0.0242,-0.0035,0.0036,0.0212,0.0213,0.0216,0.0216,0.0197,0.0221,0.0221,0.0221,0.0221,-0.1069,-0.1072,-0.1022,-0.0951,-0.0888,-0.0739,-0.0648,-0.04,-0.0101,0.0052,0.006,-0.0017,-0.0011,-0.0023,-0.0017,-0.0042,-0.008,-0.008,-0.0081,-0.1091,-0.1078,-0.1047,-0.1003,-0.092,-0.0868,-0.0757,-0.0375,-0.0033,-0.009,0.0035,0.0195,0.0098,0.0102,0.0096,0.01,0.0065,0,0]}],[{"header":{"parameterUnit":"m.s-1","parameterCategory":2,"la1":30.2992,"la2":30.254,"lo1":-89.0895,"lo2":-89.0443,"dy":0.0025,"dx":0.0025,"nx":19,"ny":19,"refTime":"2026-03-21T03:00:00:Z","depth":"4","parameterNumber":2,"parameterNumberName":"U-component_of_CURRENTS"},"data":[0,0,0,-0.129,-0.1293,-0.144,-0.1441,-0.1584,-0.1585,0,0,0,0,0,0,0,0,0,0,0,-0.1244,-0.1245,-0.1289,-0.1293,-0.144,-0.1441,-0.1584,-0.1585,0,0,0,0,0,0,0,0,0,0,0,-0.1243,-0.1244,-0.1246,-0.1293,-0.144,-0.1441,-0.1584,-0.1485,0,0,0,0,0,0,0,0,0,0,-0.1348,-0.1306,-0.1244,-0.1246,-0.1294,-0.144,-0.1441,-0.1481,-0.1491,-0.1503,0,-0.1532,0,-0.1557,-0.1594,-0.1594,0,0,0,-0.1298,-0.1298,-0.134,-0.1246,-0.1296,-0.144,-0.1375,-0.1487,-0.1499,-0.1516,-0.1534,-0.154,-0.156,-0.1594,-0.1595,-0.1722,-0.1722,0,0,-0.129,-0.1268,-0.1332,-0.1347,-0.1341,-0.1371,-0.138,-0.1495,-0.1507,-0.1534,-0.1543,-0.1562,-0.1595,-0.1596,-0.1721,-0.1722,0,0,0,-0.1263,-0.1262,-0.1303,-0.1341,-0.137,-0.1375,-0.1385,-0.1502,-0.1517,-0.1545,-0.1564,-0.1596,-0.1597,-0.1721,-0.1721,-0.1705,0,0,0,-0.1258,-0.1246,-0.1299,-0.1286,-0.1368,-0.1443,-0.139,-0.1509,-0.1523,-0.1563,-0.1596,-0.1598,-0.172,-0.1721,-0.1704,-0.1692,0,0,0,-0.1236,-0.1243,-0.1263,-0.1285,-0.1346,-0.1442,-0.1464,-0.1513,-0.1534,-0.1594,-0.1599,-0.172,-0.1721,-0.1704,-0.1691,-0.1691,0,0,0,-0.1203,-0.123,-0.1263,-0.1304,-0.1345,-0.1441,-0.1463,-0.1543,-0.1596,-0.1596,-0.172,-0.1721,-0.1703,-0.1691,-0.1691,-0.146,0,0,0,-0.1213,-0.1231,-0.1255,-0.1288,-0.1358,-0.142,-0.1499,-0.1576,-0.1616,-0.1679,-0.1683,-0.1704,-0.1691,-0.1691,-0.1532,0,0,0,0,-0.1242,-0.1259,-0.1288,-0.134,-0.1415,-0.1485,-0.1568,-0.1601,-0.1676,-0.1652,-0.1733,-0.1726,-0.1725,-0.1592,-0.1727,-0.1727,-0.1727,-0.1726,-0.1726,-0.1199,-0.1249,-0.1295,-0.1369,-0.1433,-0.1539,-0.1593,-0.1657,-0.1694,-0.1726,-0.1733,-0.1751,-0.1612,-0.1761,-0.1761,-0.1761,-0.1761,-0.1761,-0.1761,-0.1194,-0.1213,-0.1292,-0.1357,-0.1442,-0.1522,-0.1623,-0.166,-0.1726,-0.1748,-0.1749,-0.1611,-0.176,-0.176,-0.176,-0.176,-0.1761,-0.1761,-0.1761,-0.1141,-0.1159,-0.1219,-0.1304,-0.1396,-0.1505,-0.1549,-0.1642,-0.1709,-0.1726,-0.1594,-0.1744,-0.1721,-0.1734,-0.1734,-0.1734,-0.1734,-0.1734,-0.1734,-0.1052,-0.1115,-0.1142,-0.1249,-0.1299,-0.1381,-0.1514,-0.1542,-0.1634,-0.1554,-0.1728,-0.1742,-0.1743,-0.1721,-0.1733,-0.1733,-0.1733,-0.1733,-0.1733,-0.0975,-0.1003,-0.1025,-0.1066,-0.1167,-0.1214,-0.1362,-0.138,-0.1392,-0.1366,-0.146,-0.1473,-0.1456,-0.1464,-0.1431,-0.1358,-0.1355,-0.1352,0,-0.0896,-0.092,-0.0913,-0.0931,-0.096,-0.1098,-0.1054,-0.1126,-0.1221,-0.1176,-0.1409,-0.1515,-0.1524,-0.1507,-0.1509,-0.1471,0,0,0,-0.0832,-0.0841,-0.0797,-0.0833,-0.0859,-0.092,-0.1035,-0.1003,-0.121,-0.1154,-0.1278,-0.1298,-0.1556,-0.1731,-0.1738,-0.1739,-0.1704,0,0]},{"header":{"parameterUnit":"m.s-1","parameterCategory":2,"la1":30.2992,"la2":30.254,"lo1":-89.0895,"lo2":-89.0443,"dy":0.0025,"dx":0.0025,"nx":19,"ny":19,"refTime":"2026-03-21T03:00:00:Z","depth":"4","parameterNumber":3,"parameterNumberName":"V-component_of_CURRENTS"},"data":[0,0,0,-0.0476,-0.0477,-0.048,-0.048,-0.0431,-0.0431,0,0,0,0,0,0,0,0,0,0,0,-0.0474,-0.0475,-0.0476,-0.0477,-0.048,-0.048,-0.0431,-0.0431,0,0,0,0,0,0,0,0,0,0,0,-0.0474,-0.0475,-0.0475,-0.0477,-0.048,-0.048,-0.0432,-0.044,0,0,0,0,0,0,0,0,0,0,-0.0442,-0.0454,-0.0475,-0.0475,-0.0477,-0.048,-0.048,-0.0441,-0.0439,-0.0418,0,-0.0427,0,-0.0432,-0.0427,-0.0427,0,0,0,-0.0467,-0.0455,-0.0456,-0.0475,-0.0477,-0.048,-0.0476,-0.044,-0.0439,-0.0416,-0.0427,-0.0425,-0.0431,-0.0427,-0.0427,-0.0401,-0.0401,0,0,-0.0466,-0.0471,-0.0457,-0.0455,-0.0488,-0.0476,-0.0476,-0.044,-0.0441,-0.0427,-0.0424,-0.043,-0.0427,-0.0426,-0.0401,-0.0401,0,0,0,-0.0473,-0.0471,-0.0474,-0.0457,-0.0464,-0.0476,-0.0476,-0.0442,-0.0444,-0.0424,-0.0429,-0.0426,-0.0426,-0.0401,-0.0401,-0.0461,0,0,0,-0.0472,-0.0475,-0.0474,-0.0476,-0.0465,-0.0461,-0.048,-0.0446,-0.0443,-0.043,-0.0426,-0.0425,-0.04,-0.0401,-0.046,-0.0498,0,0,0,-0.0472,-0.0475,-0.0479,-0.0476,-0.0482,-0.0462,-0.0461,-0.0446,-0.0446,-0.0427,-0.0425,-0.04,-0.0401,-0.0458,-0.0494,-0.0449,0,0,0,-0.0471,-0.0497,-0.0479,-0.0512,-0.0482,-0.0503,-0.0462,-0.047,-0.046,-0.0426,-0.04,-0.0401,-0.0457,-0.0492,-0.0448,-0.0433,0,0,0,-0.0506,-0.0501,-0.0522,-0.0507,-0.0541,-0.0501,-0.0523,-0.0492,-0.0452,-0.0406,-0.0406,-0.046,-0.0494,-0.0448,-0.0447,0,0,0,0,-0.0535,-0.0551,-0.0556,-0.0575,-0.0573,-0.0571,-0.0539,-0.051,-0.0474,-0.0449,-0.0448,-0.0467,-0.0436,-0.0424,-0.0402,-0.0402,-0.0402,-0.0402,-0.0402,-0.058,-0.0589,-0.0628,-0.0637,-0.0642,-0.0619,-0.0601,-0.0552,-0.0511,-0.05,-0.0508,-0.0506,-0.0498,-0.049,-0.049,-0.049,-0.049,-0.0491,-0.0491,-0.0642,-0.067,-0.0682,-0.0725,-0.0717,-0.0727,-0.0664,-0.0628,-0.0563,-0.0545,-0.051,-0.0481,-0.0496,-0.0495,-0.0494,-0.0494,-0.0493,-0.0493,-0.0493,-0.0675,-0.069,-0.0723,-0.0782,-0.0811,-0.0792,-0.0782,-0.0722,-0.0623,-0.0605,-0.0529,-0.0525,-0.0526,-0.0566,-0.0566,-0.0566,-0.0566,-0.0566,-0.0566,-0.069,-0.0723,-0.0781,-0.0835,-0.0874,-0.0894,-0.0847,-0.0786,-0.0683,-0.0596,-0.0609,-0.0531,-0.0528,-0.0528,-0.0566,-0.0566,-0.0566,-0.0566,-0.0566,-0.0728,-0.0742,-0.082,-0.0873,-0.0955,-0.0956,-0.0927,-0.0777,-0.0689,-0.0581,-0.0557,-0.0557,-0.052,-0.0517,-0.0516,-0.0551,-0.0551,-0.0551,0,-0.0745,-0.076,-0.0855,-0.0935,-0.099,-0.0991,-0.089,-0.0802,-0.0652,-0.0643,-0.0676,-0.0657,-0.0653,-0.0621,-0.0618,-0.0621,0,0,0,-0.0771,-0.0788,-0.0858,-0.094,-0.1006,-0.0909,-0.0859,-0.0795,-0.0685,-0.0587,-0.0549,-0.055,-0.0612,-0.0565,-0.0509,-0.0506,-0.0502,0,0]}]]